Location: Larrial
(48.2758°N, 4.5331°W)
Time: 22:44:22
(UTC+00:00)

AAUSAT CUBESAT 2 - Pass Details

Date: 29 November 2021
Orbit: 571 x 586 km, 97.5° (Epoch: 19 January)

Event Time Altitude Azimuth Distance (km) Brightness Sun altitude
Rises 06:37:51 0° 1° (N) 2,794 ? -10.9°
Reaches altitude 10° 06:40:20 10° 347° (NNW) 1,893 ? -10.5°
Maximum altitude 06:43:32 23° 295° (WNW) 1,261 ? -10.0°
Drops below altitude 10° 06:46:45 10° 244° (WSW) 1,887 ? -9.5°
Sets 06:49:13 0° 229° (SW) 2,784 ? -9.1°
